Time,TemperatureF,DewpointF,PressureIn,WindDirection,WindDirectionDegrees,WindSpeedMPH,WindSpeedGustMPH,Humidity,HourlyPrecipIn,Conditions,Clouds,dailyrainin,SoftwareType,DateUTC
2013-06-17 00:00:00,67.8,63.5,30.01,SW,226,2.0,2.0,86,0.00,,SCT080,-99.99,VWS V12.06,2013-06-17 04:00:00,
2013-06-17 00:02:00,67.2,61.9,29.99,NW,316,0.0,2.0,83,0.00,,SCT080,-99.99,VWS V12.06,2013-06-17 04:02:00,
2013-06-17 00:30:00,67.9,63.2,30.01,SW,215,2.0,3.0,85,0.00,,SCT080,-99.99,VWS V12.06,2013-06-17 04:30:00,
2013-06-17 00:32:00,66.7,61.7,29.98,NW,316,0.0,2.0,84,0.00,,SCT080,-99.99,VWS V12.06,2013-06-17 04:32:00,
2013-06-17 01:00:00,67.5,63.2,30.01,SSW,213,0.0,0.0,86,0.00,,BKN100,-99.99,VWS V12.06,2013-06-17 05:00:00,
2013-06-17 01:30:00,67.5,63.2,30.01,SSW,213,1.0,1.0,86,0.00,,BKN100,-99.99,VWS V12.06,2013-06-17 05:30:00,
2013-06-17 02:00:00,68.3,62.9,30.00,West,270,4.0,4.0,83,0.00,,OVC070,-99.99,VWS V12.06,2013-06-17 06:00:00,
2013-06-17 02:30:00,68.8,63.1,29.99,SSW,207,2.0,4.0,82,0.00,,OVC070,-99.99,VWS V12.06,2013-06-17 06:30:00,
2013-06-17 03:00:00,67.6,62.9,29.99,SW,215,1.0,3.0,85,0.00,,BKN120,-99.99,VWS V12.06,2013-06-17 07:00:00,
2013-06-17 03:30:00,67.6,62.9,29.98,SW,225,2.0,3.0,85,0.00,,BKN120,-99.99,VWS V12.06,2013-06-17 07:30:00,
2013-06-17 04:00:00,67.3,62.6,29.99,WSW,252,6.0,10.0,85,0.00, RA,RA,-99.99,VWS V12.06,2013-06-17 08:00:00,
2013-06-17 04:30:00,65.4,61.8,29.98,West,259,13.0,13.0,88,0.01, RA,RA,-99.99,VWS V12.06,2013-06-17 08:30:00,
2013-06-17 05:00:00,65.1,59.8,29.97,WSW,247,14.0,14.0,83,0.01, RA,RA,-99.99,VWS V12.06,2013-06-17 09:00:00,
2013-06-17 05:30:00,65.6,59.6,29.97,East,81,0.0,1.0,81,0.00, RA,RA,-99.99,VWS V12.06,2013-06-17 09:30:00,
2013-06-17 06:00:00,65.5,59.2,29.97,SSE,154,0.0,1.0,80,0.00,,OVC095,-99.99,VWS V12.06,2013-06-17 10:00:00,
2013-06-17 06:30:00,65.0,59.7,29.99,SSW,202,3.0,4.0,83,0.00,,OVC095,-99.99,VWS V12.06,2013-06-17 10:30:00,
2013-06-17 07:00:00,64.4,60.5,29.98,SSW,212,1.0,2.0,87,0.00,,OVC090,-99.99,VWS V12.06,2013-06-17 11:00:00,
2013-06-17 07:30:00,65.1,61.1,29.98,WSW,248,0.0,0.0,87,0.00,,OVC090,-99.99,VWS V12.06,2013-06-17 11:30:00,
2013-06-17 08:00:00,66.3,61.0,29.98,WNW,290,8.0,9.0,83,0.00,,OVC080,-99.99,VWS V12.06,2013-06-17 12:00:00,
2013-06-17 08:30:00,67.7,59.1,29.98,West,264,5.0,5.0,74,0.00,,OVC085,-99.99,VWS V12.06,2013-06-17 12:30:00,
2013-06-17 09:00:00,68.1,60.6,29.99,West,265,4.0,8.0,77,0.00, FG,,-99.99,VWS V12.06,2013-06-17 13:00:00,
2013-06-17 09:30:00,67.9,62.5,29.98,NW,322,4.0,6.0,83,0.00, FG,,-99.99,VWS V12.06,2013-06-17 13:30:00,
2013-06-17 10:00:00,68.3,62.9,29.97,East,82,0.0,2.0,83,0.00,,OVC090,-99.99,VWS V12.06,2013-06-17 14:00:00,
2013-06-17 10:30:00,69.4,64.0,29.97,NNW,346,6.0,6.0,83,0.01,,OVC090,-99.99,VWS V12.06,2013-06-17 14:30:00,
2013-06-17 11:00:00,73.1,66.2,29.98,West,273,1.0,2.0,79,0.01,,OVC120,-99.99,VWS V12.06,2013-06-17 15:00:00,
2013-06-17 11:30:00,73.9,67.0,29.98,ENE,71,1.0,1.0,79,0.00,,OVC120,-99.99,VWS V12.06,2013-06-17 15:30:00,
2013-06-17 12:00:00,71.8,67.4,29.98,SE,130,3.0,3.0,86,0.00,,BKN100,-99.99,VWS V12.06,2013-06-17 16:00:00,
2013-06-17 12:30:00,72.9,68.1,29.98,East,84,3.0,6.0,85,0.00,,BKN100,-99.99,VWS V12.06,2013-06-17 16:30:00,
2013-06-17 13:00:00,73.4,67.2,29.97,SSE,161,4.0,5.0,81,0.00,,BKN110,-99.99,VWS V12.06,2013-06-17 17:00:00,
2013-06-17 13:30:00,73.8,68.7,29.98,WSW,237,0.0,0.0,84,0.00,,BKN110,-99.99,VWS V12.06,2013-06-17 17:30:00,
2013-06-17 14:00:00,73.2,68.4,29.97,South,179,0.0,1.0,85,0.00,,SCT100,-99.99,VWS V12.06,2013-06-17 18:00:00,
2013-06-17 14:30:00,72.3,67.5,29.95,SSW,208,2.0,2.0,85,0.00,,SCT100,-99.99,VWS V12.06,2013-06-17 18:30:00,
2013-06-17 15:00:00,72.5,67.7,29.95,SW,234,1.0,1.0,85,0.00,,CLR,-99.99,VWS V12.06,2013-06-17 19:00:00,
2013-06-17 15:30:00,72.9,68.5,29.94,South,180,1.0,2.0,86,0.00,,CLR,-99.99,VWS V12.06,2013-06-17 19:30:00,
2013-06-17 16:00:00,72.7,68.6,29.93,East,80,0.0,0.0,87,0.00,,CLR,-99.99,VWS V12.06,2013-06-17 20:00:00,
2013-06-17 16:30:00,73.3,68.9,29.92,East,79,0.0,1.0,86,0.00,,CLR,-99.99,VWS V12.06,2013-06-17 20:30:00,
2013-06-17 17:00:00,74.9,70.1,29.91,WSW,252,0.0,0.0,85,0.00,,BKN048,-99.99,VWS V12.06,2013-06-17 21:00:00,
2013-06-17 17:30:00,75.2,69.3,29.91,SSE,159,0.0,2.0,82,0.00,,BKN048,-99.99,VWS V12.06,2013-06-17 21:30:00,
2013-06-17 18:00:00,72.6,68.2,29.91,SE,142,2.0,3.0,86,0.00,,OVC047,-99.99,VWS V12.06,2013-06-17 22:00:00,
2013-06-17 18:30:00,71.9,68.5,29.91,SSE,165,0.0,1.0,89,0.00,,OVC047,-99.99,VWS V12.06,2013-06-17 22:30:00,
2013-06-17 19:00:00,71.5,68.4,29.92,SSE,164,0.0,0.0,90,0.00,,OVC075,-99.99,VWS V12.06,2013-06-17 23:00:00,
2013-06-17 19:30:00,70.9,68.2,29.91,SE,144,2.0,3.0,91,0.00,,OVC075,-99.99,VWS V12.06,2013-06-17 23:30:00,
2013-06-17 20:00:00,69.7,67.6,29.92,SE,133,0.0,0.0,93,0.00, +RA, +RA,-99.99,VWS V12.06,2013-06-18 00:00:00,
2013-06-17 20:30:00,69.0,67.2,29.92,SE,142,0.0,0.0,94,0.00, +RA, +RA,-99.99,VWS V12.06,2013-06-18 00:30:00,
2013-06-17 21:00:00,68.7,67.2,29.92,SSW,192,1.0,1.0,95,0.00, RA,RA,-99.99,VWS V12.06,2013-06-18 01:00:00,
2013-06-17 21:30:00,68.2,66.7,29.93,South,188,0.0,0.0,95,0.00, RA,RA,-99.99,VWS V12.06,2013-06-18 01:30:00,
2013-06-17 22:00:00,67.9,66.7,29.93,South,188,0.0,0.0,96,0.00, BR,,-99.99,VWS V12.06,2013-06-18 02:00:00,
2013-06-17 22:30:00,67.4,66.2,29.94,South,188,0.0,1.0,96,0.00, BR,,-99.99,VWS V12.06,2013-06-18 02:30:00,
2013-06-17 23:00:00,67.2,66.3,29.94,SSW,192,0.0,1.0,97,0.00,,BKN120,-99.99,VWS V12.06,2013-06-18 03:00:00,
2013-06-17 23:30:00,67.2,66.3,29.94,SSW,208,0.0,1.0,97,0.00,,BKN120,-99.99,VWS V12.06,2013-06-18 03:30:00,